Location: Gull Harbor
(47.1000°N, 122.9000°W)
Time: 12:18:17
(UTC-08:00)

Envisat - Visible Passes

Search period start: 20 January 2021 00:00
Search period end: 30 January 2021 00:00
Orbit: 764 x 766 km, 98.1° (Epoch: 20 January)

Date Brightness Start Highest point End Pass type
(mag) Time Alt. Az. Time Alt. Az. Time Alt. Az.
20 Jan 5.8 04:44:25 10° NE 04:47:33 16° E 04:50:40 10° SE visible
20 Jan 2.9 06:22:02 10° N 06:27:08 72° WNW 06:32:10 10° SSW visible
20 Jan 4.6 17:39:57 10° SSW 17:44:43 41° W 17:49:31 10° NNW visible
21 Jan 3.7 05:45:16 10° NNE 05:50:17 55° E 05:55:16 10° S visible
21 Jan 6.3 18:45:51 10° WSW 18:47:36 12° W 18:49:20 10° WNW visible
22 Jan 5.1 05:08:56 10° NE 05:13:14 27° E 05:17:31 10° SSE visible
22 Jan 3.3 06:47:37 10° N 06:52:26 44° WNW 06:57:12 10° SW visible
22 Jan 5.5 18:06:12 10° SSW 18:10:19 25° W 18:14:28 10° NW visible
23 Jan 6.1 04:33:44 10° ENE 04:36:00 13° E 04:38:15 10° ESE visible
23 Jan 3.0 06:10:36 10° NNE 06:15:43 88° WNW 06:20:49 10° SSW visible
23 Jan 4.1 17:28:19 10° S 17:33:15 51° W 17:38:13 10° NNW visible
24 Jan 4.1 05:33:57 10° NNE 05:38:50 44° E 05:43:40 10° S visible
24 Jan 6.1 18:33:12 10° WSW 18:36:01 15° W 18:38:51 10° NW visible
25 Jan 5.4 04:57:50 10° NE 05:01:43 22° E 05:05:36 10° SE visible
25 Jan 3.1 06:36:07 10° N 06:41:04 54° WNW 06:46:00 10° SSW visible
25 Jan 5.2 17:54:21 10° SSW 17:58:48 30° W 18:03:17 10° NNW visible
26 Jan 3.2 05:59:12 10° NNE 06:04:19 75° ESE 06:09:23 10° S visible
27 Jan 4.6 05:22:40 10° NNE 05:27:21 36° E 05:32:00 10° SSE visible
27 Jan 3.6 07:01:47 10° N 07:06:19 33° WNW 07:10:50 10° SW visible
27 Jan 6.0 18:20:58 10° SW 18:24:28 18° W 18:27:59 10° NW visible
28 Jan 5.7 04:46:49 10° NE 04:50:12 18° E 04:53:32 10° SE visible
28 Jan 2.9 06:24:38 10° N 06:29:42 67° WNW 06:34:43 10° SSW visible
28 Jan 4.8 17:42:37 10° SSW 17:47:19 38° W 17:52:03 10° NNW visible
29 Jan 3.6 05:47:49 10° NNE 05:52:52 60° E 05:57:53 10° S visible
29 Jan 6.5 18:49:10 10° W 18:50:14 11° W 18:51:18 10° WNW visible
